Regional Weather Roundup
Issued by NWS

Home | Current Version | Previous Version | Graphics & Text | Print | Product List | Glossary On
Versions: 1 2 3 4 5 6 7 8 9 10 11 12 13 14 15 16 17 18 19 20 21 22 23 24 25 26 27 28 29 30 31 32 33 34 35 36 37 38
000
ASUS45 KBOU 230007
RWRCO

WEATHER ROUNDUP FOR COLORADO
NATIONAL WEATHER SERVICE DENVER/BOULDER CO
600 PM MDT WED OCT 22 2014

NOTE: "FAIR" INDICATES FEW OR NO CLOUDS BELOW 12000 FEET WITH NO
SIGNIFICANT WEATHER AND/OR OBSTRUCTIONS TO VISIBILITY.

COZ001>005-013-030-031-230100-
...NORTHWEST COLORADO...

CITY           SKY/WX    TMP DP  RH WIND       PRES   REMARKS
CRAIG          PTCLDY    54  36  50 SW3       30.20R
HAYDEN         PTCLDY    54  32  43 NW9       30.20R
MEEKER         PTCLDY    58  34  40 W6        30.19R
MOUNT WERNER   NOT AVBL
STEAMBOAT SPGS PTCLDY    52  32  46 W6        30.22R
WALDEN         CLEAR     46  23  39 SW6       30.24R
$$

COZ006>008-011-230100-
...WEST CENTRAL VALLEYS...

CITY           SKY/WX    TMP DP  RH WIND       PRES   REMARKS
GRAND JUNCTION PTCLDY    65  39  38 N8        30.11R
MONTROSE       MOCLDY    64  40  41 NW5       30.17R
EAGLE          MOCLDY    52  45  76 VRB7      30.23R
RIFLE          MOCLDY    59  42  53 W9        30.17R
DELTA          PTCLDY    69  35  28 W7        30.13R
NUCLA          NOT AVBL
$$

COZ017>023-064>068-230100-
...SOUTHWEST COLORADO...

CITY           SKY/WX    TMP DP  RH WIND       PRES   REMARKS
DURANGO        PTCLDY    60  40  47 W9        30.19S
CORTEZ         CLEAR     66  34  30 W9        30.19R
PAGOSA SPRINGS CLOUDY    58  36  44 N5        30.26S
TELLURIDE      CLOUDY    51  32  48 W5        30.33S
WOLF CREEK PAS PTCLDY    32  32 100 SW15G21     N/A  WCI  22
$$

COZ009-010-012-014-032>034-037-058>063-230100-
...CENTRAL COLORADO...

CITY           SKY/WX    TMP DP  RH WIND       PRES   REMARKS
ASPEN          MOCLDY    48  40  73 CALM      30.25S
BUENA VISTA    MOCLDY    51  35  55 SW9       30.25R
COPPER MTN     MOCLDY    37  30  75 S9        30.42R
BERTHOUD PASS  CLOUDY    28  25  86 NW13G22   30.42R FOG     WCI  18
COTTONWOOD PAS CLOUDY    45  32  61 W14G23    30.33R
GUNNISON       MOCLDY    54  37  54 CALM      30.25S
KREMMLING      CLOUDY    52  34  50 W5          N/A
LEADVILLE      CLOUDY    40  30  67 N8        30.33R
MONARCH PASS   CLOUDY    32  32 100 W25       30.51R WCI  19
SALIDA         MOCLDY    56  35  45 W8        30.30R
SUNLIGHT       MOCLDY    37  36  93 CALM      30.39S
WILKERSON PASS NOT AVBL
$$

COZ069>075-230100-
...SAN LUIS VALLEY/SANGRE DE CRISTO MOUNTAINS...

CITY           SKY/WX    TMP DP  RH WIND       PRES   REMARKS
ALAMOSA        PTCLDY    56  33  42 SW7       30.20R
LA VETA PASS   MOCLDY    46  28  49 SW5       30.34R
SAGUACHE       CLOUDY    54  36  50 CALM      30.24S
$$

COZ035-036-038>040-230100-
...NORTHERN COLORADO FRONT RANGE...

CITY           SKY/WX    TMP DP  RH WIND       PRES   REMARKS
DENVER INTL AP MOCLDY    63  37  38 CALM      30.10R
DMNS CITY PARK   N/A     63  35  35 NE5       30.10R
AURORA         MOCLDY    59  40  49 E6        30.12R
FRONT RANGE AP NOT AVBL
ERIE MUNI ARPT CLOUDY    64  34  32 W12       30.09R
BOULDER MUN AP CLOUDY    63  34  34 SW13G18   30.09R
CENTENNIAL     CLOUDY    63  38  39 NE9       30.12R
BROOMFIELD     MOCLDY    63  37  39 W13       30.12R
FORT COLLINS   PTCLDY    63  36  36 S6        30.08R
LONGMONT       PTCLDY    64  37  37 SW10      30.10R
$$

COZ041-046-047-076>085-087-088-230100-
...PIKES PEAK/PALMER DIVIDE AND SOUTHERN FOOTHILLS...

CITY           SKY/WX    TMP DP  RH WIND       PRES   REMARKS
COLO. SPRINGS  MOCLDY    62  38  40 SE5       30.14R
A. F. ACADEMY  MOCLDY    57  45  63 W3        30.15R
ELLICOTT       CLOUDY    60  39  45 SE5       30.12R
FALCON         MOCLDY    55  39  53 NW3       30.18R
FORT CARSON    MOCLDY    61  42  49 NW2       30.11R
LIMON          MOCLDY    54  46  74 SE7       30.11S
MONUMENT HILL  CLOUDY    54  37  54 SE5       30.16S
TRINIDAD       MOCLDY    66  37  34 SE6       30.10R
$$

COZ042>045-048>051-090-091-230100-
...NORTHEAST COLORADO...

CITY           SKY/WX    TMP DP  RH WIND       PRES   REMARKS
GREELEY ARPT   PTCLDY    64  36  34 W6        30.06R
AKRON          CLEAR     58  37  45 E8        30.08R
BURLINGTON     CLEAR     62  39  42 NE6       30.07R
WRAY           CLEAR     63  37  37 N7        30.05R
STERLING       PTCLDY    64  39  39 E5        30.06R
HOLYOKE        CLEAR     61  34  36 N6        30.07R
FORT MORGAN    CLOUDY    63  37  38 E7        30.07R
$$

COZ086-089-092>099-230100-
...SOUTHEAST COLORADO...

CITY           SKY/WX    TMP DP  RH WIND       PRES   REMARKS
PUEBLO         MOCLDY    70  39  32 SE7       30.04R
LA JUNTA       CLEAR     68  41  37 E7        30.03S
LAMAR          CLEAR     68  46  45 E8        30.01R
SPRINGFIELD      N/A     64  44  48 NE7       30.06R
$$



USA.gov is the U.S. government's official web portal to all federal, state and local government web resources and services.